Theta_e
295 291 287 291 293 293 292 291 290 294 297 295 291 290 292 293 292 292 293 294 296 298 301 303 303 303 304 304 304 304 305 305 304 304 303 303 303 304 304 304 305 305 306 308
290 287 293 295 294 292 291 290 290 294 296 294 289 288 291 291 291 290 291 292 294 297 299 301 302 302 302 303 303 305 305 305 305 305 304 304 304 304 304 304 305 305 306 308
288 290 295 293 292 291 290 289 289 291 293 293 289 286 288 290 291 291 291 292 294 297 299 299 299 299 300 300 301 304 304 305 305 306 306 305 305 305 304 304 303 304 306 308
291 293 293 292 292 292 287 292 293 291 286 280 290 279 283 287 287 288 289 290 292 293 294 296 296 295 296 297 300 301 301 302 304 304 303 302 301 301 303 303 304 305 306 308
287 289 290 289 293 293 291 294 292 291 287 285 285 281 281 286 284 285 287 288 290 290 291 292 292 293 293 293 294 296 296 297 299 302 304 306 305 304 307 307 308 307 306 308
288 294 292 291 293 294 294 293 293 291 287 279 283 282 281 282 285 285 286 286 287 288 289 290 291 291 290 290 291 292 294 294 296 298 302 305 305 306 305 306 306 308 310 312
286 287 290 292 289 293 293 289 282 280 279 279 284 283 280 284 286 286 284 284 285 285 286 287 286 286 287 287 288 290 291 290 292 293 295 297 300 303 304 305 306 306 307 308
281 279 288 291 289 288 290 289 282 275 277 279 283 282 281 285 286 286 286 284 284 283 284 284 285 285 286 286 287 288 288 289 289 290 291 292 294 296 297 297 298 301 303 305
282 280 288 290 291 291 287 284 290 282 278 280 282 279 284 284 283 284 283 283 282 282 282 283 284 284 285 285 286 287 287 287 288 288 289 289 290 291 292 293 294 295 297 300
287 280 285 288 290 289 288 292 284 282 275 275 278 279 281 280 281 282 281 280 281 282 282 282 283 283 284 284 285 285 286 286 287 287 288 288 288 289 290 290 290 291 293 294
291 285 282 287 285 286 286 285 286 287 283 279 276 279 283 283 282 281 281 282 281 281 281 282 282 282 283 283 282 282 283 282 283 284 284 285 285 286 286 287 287 289 290 291
293 285 280 282 286 289 288 287 287 282 279 279 280 278 284 285 283 282 281 282 282 281 281 280 280 279 280 280 279 279 280 280 281 281 282 282 282 283 282 282 283 285 286 288
292 282 275 278 281 285 284 286 287 285 284 280 278 278 284 283 282 282 281 281 281 280 279 278 277 277 278 278 278 278 278 279 280 280 280 280 280 280 281 281 282 283 283 283
295 288 282 276 279 283 282 285 286 285 279 279 279 276 279 280 280 281 281 281 280 279 278 277 276 276 277 277 276 277 277 278 279 279 278 278 278 279 279 280 281 281 281 281
291 283 284 286 286 285 284 283 284 283 283 280 280 280 280 281 281 281 282 281 279 278 278 277 276 276 276 276 276 277 277 278 278 277 276 276 277 278 278 278 279 280 279 280
290 284 284 281 287 285 282 284 283 284 283 282 281 281 284 284 283 281 281 280 278 277 277 277 276 276 276 276 276 277 276 277 277 276 275 275 276 276 276 277 277 277 277 278
286 285 283 279 284 283 280 282 284 284 283 283 280 284 284 281 281 282 281 279 278 277 277 276 275 275 276 276 277 275 276 277 276 275 275 274 274 274 275 275 275 276 275 276
284 283 280 278 281 275 280 281 282 283 280 281 281 282 283 283 282 281 282 279 278 277 277 276 275 274 275 275 276 276 275 275 274 273 273 273 273 273 273 274 274 274 274 275
285 284 277 277 276 277 279 280 281 283 282 282 280 280 280 280 280 278 280 280 278 277 277 276 275 275 274 274 275 275 273 273 272 271 271 271 272 272 272 272 272 273 273 274
283 282 278 271 271 271 279 280 282 283 277 283 282 280 279 281 276 276 279 278 277 277 277 276 275 275 273 273 274 273 272 271 270 270 270 271 271 271 271 271 271 273 273 274
276 275 273 266 267 272 279 281 282 275 279 283 283 281 280 280 279 279 278 277 277 276 276 275 274 273 273 273 273 272 270 269 270 270 270 269 270 270 271 271 271 271 272 272
273 272 271 266 266 271 280 280 279 279 281 284 283 282 281 279 278 278 277 276 275 274 275 274 273 273 273 273 272 271 269 269 268 268 268 267 268 270 270 269 270 270 270 270
270 273 274 275 275 274 279 278 278 279 279 281 282 282 279 278 277 277 275 275 275 274 274 274 272 272 271 272 272 269 268 268 266 265 265 266 267 268 268 268 268 268 269 268
269 267 270 273 271 272 274 277 279 280 280 281 282 280 279 277 277 276 276 275 275 275 273 272 271 270 269 269 269 268 267 265 262 263 264 266 265 265 266 267 268 267 267 266
272 272 270 270 273 274 272 277 280 280 280 279 280 279 279 278 277 277 276 275 274 274 273 272 271 270 269 268 266 265 264 262 263 263 264 264 264 264 264 266 266 266 267 269
272 273 272 272 276 277 279 281 280 279 278 279 278 275 277 278 276 275 275 274 274 272 271 270 269 268 267 265 264 261 258 260 259 262 262 262 262 262 263 263 263 267 269 270
Wind_Speed
3 5 6 10 6 3 1 5 4 3 3 3 5 7 7 9 12 12 12 11 11 12 10 12 15 14 14 13 12 9 9 7 5 4 3 2 2 1 2 3 4 4 4 5
5 7 6 4 4 5 6 5 3 3 1 5 5 8 9 11 8 8 9 11 10 10 11 12 14 13 12 10 8 9 8 8 5 3 2 1 1 1 1 2 3 4 4 5
10 6 9 8 5 5 6 3 4 6 3 6 9 2 4 6 8 11 10 8 11 9 9 11 14 13 12 12 10 10 9 9 7 7 4 3 3 3 4 3 3 3 4 4
4 3 13 6 2 4 5 3 3 5 3 4 4 5 3 5 8 9 8 9 9 10 11 12 13 14 13 11 11 11 11 11 10 8 5 5 3 3 3 3 3 4 5 4
6 6 8 10 16 7 2 5 3 1 2 3 2 3 3 7 3 3 5 7 8 9 10 11 12 12 12 11 11 10 11 12 11 9 6 5 6 3 3 4 7 5 5 5
1 0 4 6 3 4 7 6 8 4 4 2 7 6 4 5 4 4 3 5 7 8 10 11 10 12 11 11 11 11 12 12 12 10 11 9 8 7 7 6 6 5 5 5
1 2 2 3 7 3 8 9 2 2 0 6 1 3 2 3 5 7 7 5 5 6 8 9 11 10 10 12 12 10 12 12 13 12 13 13 12 11 9 9 6 8 6 6
7 2 7 4 6 10 8 15 7 7 5 4 0 5 0 5 7 8 8 6 6 6 6 7 8 8 9 11 11 11 11 12 13 12 12 12 13 8 8 10 9 8 9 9
6 3 0 1 1 5 6 5 3 6 2 2 4 2 1 7 7 7 7 7 6 6 6 6 7 8 9 9 10 10 10 11 13 12 11 12 12 13 10 11 10 8 9 10
6 6 1 1 1 1 4 5 2 2 5 5 4 4 4 13 11 8 6 6 5 5 6 6 7 8 8 8 8 10 10 11 11 11 11 10 12 12 11 11 13 12 11 12
4 4 2 3 5 7 3 4 3 2 4 5 4 5 2 13 14 11 8 7 6 5 5 5 5 6 6 7 8 9 10 11 11 11 11 11 11 12 11 11 12 12 12 13
2 6 4 4 2 1 2 5 5 5 5 2 2 3 3 11 13 12 10 8 7 6 6 5 5 6 6 7 8 8 9 10 10 9 10 11 11 11 12 13 13 13 13 13
6 0 4 6 7 2 4 5 4 4 2 6 5 3 3 9 12 10 12 9 8 6 6 5 5 6 6 6 7 8 8 9 9 9 10 11 11 11 12 11 12 12 12 12
4 3 4 8 4 4 6 5 5 4 3 4 4 7 8 11 13 12 12 9 8 7 7 6 5 5 5 5 5 6 8 7 8 9 10 11 11 11 10 10 11 11 11 11
3 5 3 3 3 2 2 4 7 6 4 6 6 8 16 19 17 15 13 11 10 8 7 6 5 4 5 5 5 5 6 7 7 9 10 11 9 9 10 10 11 10 11 11
3 5 3 2 2 4 2 2 2 5 4 5 6 4 4 14 13 13 14 13 11 9 8 7 6 5 5 4 4 5 6 7 7 8 10 10 10 11 11 11 11 11 11 11
4 5 3 5 3 3 6 8 7 4 2 8 7 6 15 16 16 17 16 13 12 10 9 8 7 6 5 4 4 5 5 4 6 7 8 9 9 10 10 10 10 11 11 11
7 5 3 3 3 5 2 1 1 3 3 3 4 11 16 14 8 9 9 11 12 11 10 9 7 6 5 4 5 5 4 5 7 8 9 9 10 10 10 10 10 10 9 10
3 4 4 6 3 5 2 6 7 8 7 8 11 9 12 14 9 3 6 7 9 9 8 7 7 6 5 5 5 5 6 6 8 9 9 10 10 10 10 11 11 10 10 9
4 5 5 3 6 9 3 3 3 3 6 14 12 17 19 15 9 5 10 9 10 10 9 9 8 7 6 4 5 6 6 6 7 8 8 8 9 8 8 9 10 10 9 10
3 3 5 2 3 8 4 5 3 6 6 13 17 18 18 9 3 10 14 9 11 10 10 9 7 6 5 4 5 6 5 6 5 7 7 7 8 8 8 9 8 9 9 10
7 7 5 4 3 8 7 4 9 4 4 12 12 14 13 8 12 15 14 13 12 11 10 8 8 6 5 4 5 5 5 4 5 6 6 6 6 6 8 8 8 8 8 9
2 6 7 8 7 3 5 1 1 3 5 5 11 12 12 14 12 13 13 12 10 11 9 7 8 8 5 5 4 4 3 4 5 4 4 5 5 7 7 7 7 7 8 8
4 3 3 4 3 3 3 2 2 4 5 7 8 14 14 12 14 11 11 11 10 9 8 6 8 7 5 4 5 4 3 4 3 4 4 4 5 6 5 5 6 6 6 7
4 5 6 4 2 2 5 6 6 6 7 9 10 8 11 16 12 12 10 10 9 9 7 7 7 6 6 5 5 3 4 4 3 2 3 4 4 5 5 5 5 6 6 9
7 10 8 9 10 6 7 14 9 10 9 13 12 8 8 13 14 9 9 8 9 8 7 6 6 7 6 5 4 4 2 3 2 1 2 3 3 3 3 4 5 9 11 15
Wind_Direction
181 108 183 195 195 101 260 171 268 138 209 112 87 83 50 44 50 50 48 38 35 37 31 30 38 36 45 45 52 45 49 24 31 30 28 28 28 352 2 8 14 24 1 8
57 211 174 144 254 262 289 188 152 36 163 92 95 78 64 46 51 51 42 40 30 35 36 36 39 37 38 39 36 39 36 30 19 18 358 56 74 17 10 339 1 9 12 7
170 215 165 175 209 190 232 174 171 148 148 56 133 147 162 76 70 54 39 31 37 40 39 41 41 32 30 29 17 31 27 28 22 12 22 22 35 21 1 356 345 343 13 8
142 143 170 163 237 192 195 164 139 122 119 218 172 251 207 117 73 55 42 34 34 38 40 39 38 34 28 17 20 23 28 25 16 11 32 46 51 19 335 325 320 343 355 5
218 172 158 171 200 210 241 41 163 117 84 48 234 81 293 139 108 78 56 47 43 40 42 39 34 36 30 19 24 16 20 30 15 11 17 23 29 9 6 7 5 14 356 3
118 176 162 185 123 142 136 73 24 48 69 351 234 155 224 193 164 143 99 60 50 50 46 45 40 38 27 20 23 20 14 17 19 15 19 21 30 22 28 15 13 3 6 3
66 332 276 159 87 23 123 105 29 328 226 221 295 149 260 120 91 134 128 87 58 45 45 41 35 32 29 26 22 18 18 18 18 20 23 21 16 20 25 15 10 8 3 6
151 223 179 189 182 179 175 163 172 201 198 214 76 222 246 115 102 105 104 100 75 59 53 45 37 38 34 29 26 25 20 23 24 21 22 21 25 24 28 22 14 15 7 2
149 218 345 187 229 151 183 196 178 111 13 83 148 112 34 143 129 122 114 96 82 65 55 49 41 40 36 29 26 27 26 27 29 24 26 25 23 26 23 19 19 14 6 3
187 114 306 211 121 27 149 169 97 3 140 229 241 218 212 180 164 147 133 120 105 81 61 49 42 39 33 30 23 25 30 33 32 31 30 30 26 24 23 23 19 12 9 4
141 107 201 143 203 175 163 192 200 137 153 176 166 242 329 176 162 160 153 136 122 103 81 61 48 40 36 34 27 27 30 32 33 30 30 32 28 25 25 24 18 9 10 9
192 113 139 197 261 312 296 208 166 152 219 250 189 232 341 141 146 146 141 133 123 114 100 77 59 46 34 37 34 30 31 37 30 29 36 34 29 26 27 22 17 9 10 7
180 353 91 4 350 337 217 216 183 127 96 195 146 218 123 125 136 146 145 145 135 122 103 83 58 46 41 39 37 39 34 34 30 30 30 30 26 22 20 19 13 9 7 9
95 118 158 176 174 150 184 194 198 149 133 174 219 157 191 171 158 156 152 146 137 133 123 106 84 67 55 49 41 33 36 29 28 29 30 27 19 16 13 9 11 9 6 7
113 118 111 83 34 113 173 179 187 180 177 171 189 183 194 186 170 164 153 145 144 141 134 127 118 94 71 59 46 45 38 32 28 34 28 20 10 11 10 11 8 3 7 3
343 116 130 123 97 39 358 242 189 175 118 83 128 234 177 153 147 155 160 158 153 146 140 134 118 107 84 72 60 51 41 32 26 32 27 13 10 9 10 6 4 3 4 1
92 129 140 183 147 74 296 215 195 163 191 146 175 185 147 156 170 170 162 158 156 152 149 143 134 124 106 85 80 63 45 29 37 34 28 19 13 11 6 1 3 3 358 353
135 123 82 128 132 207 235 341 306 166 210 178 100 157 168 157 125 127 146 149 155 154 149 142 137 130 113 92 84 85 59 41 39 32 24 16 12 8 2 1 2 357 353 351
10 126 112 150 189 303 266 202 176 176 241 184 145 129 119 117 89 47 141 144 149 146 144 142 138 130 115 95 88 88 58 44 35 24 16 7 5 2 358 0 355 349 349 350
39 53 108 135 158 205 229 173 168 134 287 174 151 151 145 144 162 194 162 135 131 135 141 140 135 128 110 96 92 86 60 47 35 17 7 3 3 357 357 353 348 344 345 347
100 52 153 164 210 288 193 156 154 108 238 151 154 156 157 166 159 141 136 127 138 139 140 133 133 132 130 115 104 89 75 56 27 10 7 9 5 353 1 348 343 345 345 343
154 144 182 84 90 270 156 85 168 200 16 141 145 152 148 116 123 135 137 139 142 143 143 140 136 135 125 112 108 102 76 47 30 8 9 1 349 350 356 345 343 342 345 343
226 182 177 178 208 249 215 164 201 142 140 152 140 149 134 134 141 142 143 145 149 152 152 146 143 135 121 107 92 102 72 43 20 4 354 349 348 359 347 350 345 343 349 346
266 186 158 72 271 233 226 296 197 158 131 128 130 141 140 143 148 143 148 155 158 159 155 145 143 140 134 117 96 100 81 47 43 14 350 349 354 346 351 347 352 346 343 340
181 126 165 273 275 356 271 227 177 140 123 113 126 141 145 144 155 156 158 159 157 157 153 152 155 148 153 146 130 109 85 78 43 4 355 1 349 340 338 347 344 343 334 327
189 178 174 213 197 165 206 185 173 153 157 150 142 129 149 157 159 155 157 158 157 160 151 147 148 144 164 146 140 122 112 121 89 11 2 356 337 326 334 333 325 329 330 331